Date,TemperatureHighF,TemperatureAvgF,TemperatureLowF,DewpointHighF,DewpointAvgF,DewpointLowF,HumidityHigh,HumidityAvg,HumidityLow,PressureMaxIn,PressureMinIn,WindSpeedMaxMPH,WindSpeedAvgMPH,GustSpeedMaxMPH,PrecipitationSumIn
2013-3-1,60,44,30,33,29,22,94,61,25,0.00,40.00,13,5,22,0.00
2013-3-2,51,41,32,30,24,16,85,55,25,0.00,40.00,13,7,24,0.00
2013-3-3,69,48,27,40,29,24,93,56,24,0.00,40.00,7,4,16,0.00
2013-3-4,78,63,48,58,51,40,95,68,41,0.00,40.00,10,6,24,0.00
2013-3-5,65,58,43,60,36,20,89,49,21,0.00,40.00,18,9,32,0.00
2013-3-6,65,48,31,36,25,15,84,47,14,0.00,40.00,7,3,15,0.00
2013-3-7,68,52,34,40,33,29,93,56,23,0.00,40.00,8,3,15,0.00
2013-3-8,71,58,46,53,47,40,86,68,47,0.00,40.00,10,5,17,0.00
2013-3-9,73,65,58,62,57,51,89,77,62,0.00,40.00,10,6,21,0.01
2013-3-10,65,59,47,63,49,35,97,71,40,0.00,40.00,11,7,23,1.36
2013-3-11,59,48,39,33,29,21,79,51,25,0.00,40.00,11,6,21,0.13
2013-3-12,71,49,31,43,33,27,96,63,20,0.00,40.00,6,2,12,0.00
2013-3-13,71,55,40,41,34,24,84,52,18,0.00,40.00,7,3,15,0.00
2013-3-14,75,57,38,48,42,37,95,62,29,0.00,40.00,7,3,13,0.00
2013-3-15,80,63,44,55,47,42,96,61,26,0.00,40.00,7,4,17,0.00
2013-3-16,81,68,56,59,55,51,97,68,35,0.00,40.00,9,6,20,0.00
2013-3-17,81,69,61,64,60,58,94,75,46,0.00,40.00,7,5,16,0.00
2013-3-18,84,73,64,65,61,49,97,70,43,0.00,40.00,9,5,20,0.00
2013-3-19,75,64,54,49,45,39,76,52,36,0.00,40.00,8,6,16,0.00
2013-3-20,71,59,48,48,39,25,92,54,18,0.00,40.00,10,6,21,0.36
2013-3-21,71,58,46,53,43,34,92,60,35,0.00,40.00,9,5,20,0.22
2013-3-22,83,70,62,66,60,53,91,74,47,0.00,40.00,9,4,18,0.00
2013-3-23,64,58,54,57,54,52,93,85,74,0.00,40.00,7,5,15,0.00
2013-3-24,58,52,42,55,37,26,91,60,33,0.00,40.00,17,11,29,0.00
2013-3-25,58,45,34,30,22,16,76,45,19,0.00,40.00,15,7,26,0.00
2013-3-26,59,44,28,32,23,16,88,48,19,0.00,40.00,12,4,20,0.00
2013-3-27,71,47,30,36,30,27,95,63,21,0.00,40.00,7,3,15,0.00
2013-3-28,71,66,60,53,52,51,75,61,52,0.00,40.00,7,4,15,0.00
2013-3-29,75,65,55,60,56,52,95,75,51,0.00,40.00,6,4,15,0.00
2013-3-30,79,68,60,64,58,-100,94,75,48,0.00,40.00,7,4,15,0.33
2013-3-31,72,66,59,63,62,57,93,85,73,0.00,40.00,8,4,22,0.85